South Hill, VA

7:48 AM EST on November 19, 2019 (GMT -0500)
Mecklenburg-Brunswick Regional

Weather History for KAVC - August, 2019

Change the Weather History Date:

Sunday, August 11, 2019

  Actual Average (KEMV) Record (KEMV)
Temperature  
Mean Temperature 76 °F -  
Max Temperature 85 °F 88 °F 95 °F (1983)
Min Temperature 66 °F 65 °F 57 °F (2002)
Cooling Degree Days 10    
Growing Degree Days 26 (Base 50)    
Moisture  
Dew Point 66 °F    
Average Humidity 78    
Maximum Humidity 100    
Minimum Humidity 45    
Precipitation  
Precipitation 0.00 in - - ()
Sea Level Pressure  
Sea Level Pressure 30.08 in    
Wind  
Wind Speed 2 mph (NNE)    
Max Wind Speed 8 mph    
Max Gust Speed -    
Visibility 10 miles    
Events      
Averages and records for this station are not official NWS values.
T = Trace of Precipitation, MM = Missing Value Source: NWS Daily Summary

Daily Weather History Graph

Daily Weather History Graph

Search for Another Location

Airport or City:

Astronomy

Aug. 11, 2019 Rise Set
Actual Time 6:26 AM EDT 8:08 PM EDT
Civil Twilight 5:58 AM EDT 8:35 PM EDT
Nautical Twilight 5:24 AM EDT 9:09 PM EDT
Astronomical Twilight 4:49 AM EDT 9:44 PM EDT
Moon 5:41 PM EDT (8/11) 2:48 AM EDT (8/11)
Length of Visible Light 14h 37m
Length of Day
13h 42m
Waxing Gibbous, 87% of the Moon is Illuminated
Aug 11
Waxing Gibbous
Aug 15
Full
Aug 23
Last Quarter
Aug 30
New
Sep 5
First Quarter

Hourly Weather History & Observations

Time (EDT) Temp. Heat Index Dew Point Humidity Pressure Visibility Wind Dir Wind Speed Gust Speed Precip Events Conditions
12:15 AM 69.8 °F - 69.8 °F 100% 30.02 in 10.0 mi Calm Calm - N/A   Scattered Clouds
12:35 AM 69.3 °F - 69.3 °F 100% 30.03 in 10.0 mi Calm Calm - N/A   Scattered Clouds
12:55 AM 69.3 °F - 69.3 °F 100% 30.03 in 10.0 mi Calm Calm - N/A   Scattered Clouds
1:15 AM 69.8 °F - 69.8 °F 100% 30.04 in 10.0 mi NNW 3.5 mph - N/A   Mostly Cloudy
1:35 AM 69.8 °F - 69.8 °F 100% 30.04 in 10.0 mi North 5.8 mph - N/A   Overcast
1:55 AM 69.3 °F - 69.3 °F 100% 30.04 in 10.0 mi NNE 4.6 mph - N/A   Overcast
2:15 AM 68.7 °F - 68.7 °F 100% 30.04 in 10.0 mi North 8.1 mph - N/A   Overcast
2:35 AM 68.2 °F - 68.2 °F 100% 30.03 in 10.0 mi Calm Calm - N/A   Overcast
2:55 AM 68.0 °F - 68.0 °F 100% 30.03 in 10.0 mi NNE 3.5 mph - N/A   Overcast
3:15 AM 68.2 °F - 68.2 °F 100% 30.03 in 7.0 mi Calm Calm - N/A   Overcast
3:35 AM 68.4 °F - 68.4 °F 100% 30.04 in 10.0 mi Calm Calm - N/A   Overcast
3:55 AM 68.2 °F - 68.2 °F 100% 30.03 in 10.0 mi Calm Calm - N/A   Overcast
4:15 AM 68.2 °F - 68.2 °F 100% 30.04 in 10.0 mi Calm Calm - N/A   Overcast
4:35 AM 68.0 °F - 68.0 °F 100% 30.04 in 10.0 mi Calm Calm - N/A   Overcast
4:55 AM 68.0 °F - 68.0 °F 100% 30.04 in 10.0 mi North 3.5 mph - N/A   Overcast
5:15 AM 68.0 °F - 68.0 °F 100% 30.04 in 10.0 mi Calm Calm - N/A   Overcast
5:35 AM 68.4 °F - 68.4 °F 100% 30.05 in 10.0 mi Calm Calm - N/A   Overcast
5:55 AM 68.0 °F - 68.0 °F 100% 30.06 in 10.0 mi Calm Calm - N/A   Overcast
6:15 AM 67.5 °F - 67.5 °F 100% 30.07 in 10.0 mi Calm Calm - N/A   Mostly Cloudy
6:35 AM 66.9 °F - 66.9 °F 100% 30.07 in 10.0 mi Calm Calm - N/A   Scattered Clouds
6:55 AM 66.4 °F - 66.4 °F 100% 30.08 in 10.0 mi North 3.5 mph - N/A   Scattered Clouds
7:15 AM 66.7 °F - 66.7 °F 100% 30.08 in 10.0 mi North 3.5 mph - N/A   Scattered Clouds
7:35 AM 67.1 °F - 67.1 °F 100% 30.09 in 10.0 mi North 3.5 mph - N/A   Clear
7:55 AM 68.4 °F - 68.4 °F 100% 30.09 in 10.0 mi North 3.5 mph - N/A   Clear
8:15 AM 70.0 °F - 69.1 °F 97% 30.10 in 10.0 mi North 3.5 mph - N/A   Clear
8:35 AM 71.1 °F - 68.9 °F 93% 30.11 in 10.0 mi NNE 5.8 mph - N/A   Clear
8:55 AM 72.5 °F - 69.4 °F 90% 30.11 in 10.0 mi NNE 3.5 mph - N/A   Clear
9:15 AM 73.9 °F - 69.3 °F 85% 30.11 in 10.0 mi North 4.6 mph - N/A   Clear
9:35 AM 75.2 °F - 67.3 °F 76% 30.11 in 10.0 mi North 5.8 mph - N/A   Clear
9:55 AM 75.7 °F - 67.5 °F 75% 30.12 in 10.0 mi North 4.6 mph - N/A   Scattered Clouds
10:15 AM - - - N/A% - - North - - N/A   Unknown
10:55 AM - - - N/A% - - North - - N/A   Unknown
11:15 AM 79.2 °F - 65.5 °F 63% 30.12 in 10.0 mi North 5.8 mph - N/A   Unknown
11:35 AM 80.4 °F 81.7 °F 63.0 °F 55% 30.13 in 10.0 mi NE 3.5 mph - N/A   Clear
11:55 AM 81.0 °F 82.6 °F 64.4 °F 57% 30.13 in 10.0 mi ENE 3.5 mph - N/A   Clear
12:15 PM 80.8 °F 82.1 °F 63.1 °F 55% 30.14 in 10.0 mi Calm Calm - N/A   Clear
12:35 PM 82.0 °F 83.0 °F 62.2 °F 51% 30.12 in 10.0 mi North 4.6 mph - N/A   Clear
12:55 PM 82.6 °F 83.9 °F 64.0 °F 53% 30.12 in 10.0 mi ENE 4.6 mph - N/A   Clear
1:15 PM 82.8 °F 83.8 °F 63.1 °F 51% 30.12 in 10.0 mi Calm Calm - N/A   Clear
1:35 PM 83.3 °F 84.3 °F 62.6 °F 50% 30.11 in 10.0 mi Calm Calm - N/A   Clear
1:55 PM 83.5 °F 84.5 °F 63.3 °F 50% 30.12 in 10.0 mi Calm Calm - N/A   Clear
2:15 PM 83.5 °F 84.7 °F 63.7 °F 51% 30.11 in 10.0 mi Calm Calm - N/A   Scattered Clouds
2:35 PM 84.7 °F 85.6 °F 63.1 °F 48% 30.11 in 10.0 mi Calm Calm - N/A   Scattered Clouds
2:55 PM 82.6 °F 83.2 °F 61.9 °F 49% 30.09 in 10.0 mi SSE 5.8 mph - N/A   Scattered Clouds
3:15 PM 84.9 °F 85.9 °F 63.1 °F 48% 30.09 in 10.0 mi North 5.8 mph - N/A   Clear
3:35 PM 84.2 °F 85.2 °F 63.3 °F 49% 30.09 in 10.0 mi ESE 3.5 mph - N/A   Clear
3:55 PM 84.9 °F 86.1 °F 63.7 °F 49% 30.08 in 10.0 mi North 3.5 mph - N/A   Clear
4:15 PM 83.3 °F 83.7 °F 61.3 °F 47% 30.08 in 10.0 mi Calm Calm - N/A   Clear
4:35 PM 85.3 °F 85.7 °F 61.5 °F 45% 30.07 in 10.0 mi Calm Calm - N/A   Clear
4:55 PM 85.3 °F 85.9 °F 62.6 °F 46% 30.07 in 10.0 mi NNE 3.5 mph - N/A   Clear
5:15 PM 84.6 °F 85.4 °F 62.6 °F 48% 30.07 in 10.0 mi East 3.5 mph - N/A   Clear
5:35 PM 84.9 °F 85.6 °F 62.6 °F 47% 30.08 in 10.0 mi Calm Calm - N/A   Mostly Cloudy
5:55 PM 85.3 °F 85.9 °F 62.4 °F 46% 30.07 in 10.0 mi NNE 3.5 mph - N/A   Scattered Clouds
6:15 PM 85.1 °F 85.7 °F 61.9 °F 46% 30.07 in 10.0 mi NE 3.5 mph - N/A   Clear
6:35 PM 84.6 °F 85.2 °F 62.2 °F 47% 30.07 in 10.0 mi Calm Calm - N/A   Clear
6:55 PM 84.0 °F 84.5 °F 61.9 °F 47% 30.07 in 10.0 mi Calm Calm - N/A   Clear
7:15 PM 83.1 °F 84.4 °F 63.7 °F 52% 30.06 in 10.0 mi Calm Calm - N/A   Clear
7:35 PM 80.8 °F 82.6 °F 65.1 °F 59% 30.07 in 10.0 mi Calm Calm - N/A   Clear
7:55 PM 78.4 °F - 65.3 °F 64% 30.07 in 10.0 mi Calm Calm - N/A   Clear
8:15 PM 74.5 °F - 68.4 °F 81% 30.07 in 10.0 mi Calm Calm - N/A   Clear
8:35 PM 72.1 °F - 68.2 °F 87% 30.08 in 10.0 mi Calm Calm - N/A   Clear
8:55 PM 70.9 °F - 67.6 °F 89% 30.07 in 10.0 mi Calm Calm - N/A   Clear
9:15 PM 69.4 °F - 67.3 °F 93% 30.08 in 10.0 mi Calm Calm - N/A   Clear
9:35 PM 70.2 °F - 68.2 °F 93% 30.08 in 10.0 mi Calm Calm - N/A   Clear
10:15 PM 67.6 °F - 66.9 °F 98% 30.09 in 10.0 mi Calm Calm - N/A   Clear
10:35 PM 67.1 °F - 67.1 °F 100% 30.08 in 10.0 mi Calm Calm - N/A   Clear
10:55 PM 67.1 °F - 66.9 °F 99% 30.09 in 10.0 mi Calm Calm - N/A   Clear
11:15 PM 66.0 °F - 66.0 °F 100% 30.09 in 10.0 mi Calm Calm - N/A   Clear
11:35 PM 66.2 °F - 66.2 °F 100% 30.09 in 10.0 mi Calm Calm - N/A   Clear